This demonstration page uses our WeatherBlox Daily Observations layout. Learn more.

Left ArrowRight Arrow

39.51506, -84.39828

Hourly Observations for November 20, 2020

Temp ( °F °C ) Dew Point ( °F °C ) Humidity (%) Winds ( mph kmh ) Pressure ( in mb ) Visibility ( mi km ) Precip ( " mm )
12:15 am 00:15 Clear 56 13.3 28 -2.2 34 34 WSW 15 24 30.25 1024 10 16.0934 0 0
12:35 am 00:35 Clear 55 12.9 28 -2.1 36 36 WSW 15 24 30.25 1024 10 16.0934 0 0
12:55 am 00:55 Clear 56 13.1 28 -2.2 35 35 WSW 17 28 30.24 1024 10 16.0934 0 0
1:15 am 01:15 Clear 56 13.2 28 -2.3 34 34 WSW 17 28 30.25 1024 10 16.0934 0 0
1:35 am 01:35 Clear 55 12.7 28 -2.3 35 35 WSW 16 26 30.26 1025 10 16.0934 0 0
1:55 am 01:55 Clear 55 12.5 28 -2.2 36 36 W 15 24 30.27 1025 10 16.0934 0 0
2:15 am 02:15 Clear 54 12.1 28 -2 38 38 WSW 14 22 30.27 1025 10 16.0934 0 0
2:35 am 02:35 Clear 55 12.5 28 -2.1 36 36 WSW 15 24 30.28 1025 10 16.0934 0 0
2:55 am 02:55 Clear 54 12 28 -2 38 38 WSW 15 24 30.28 1026 10 16.0934 0 0
3:15 am 03:15 Clear 53 11.6 29 -1.9 39 39 WSW 14 22 30.3 1026 10 16.0934 0 0
3:35 am 03:35 Clear 52 11.2 29 -1.7 41 41 WSW 13 20 30.3 1026 10 16.0934 0 0
3:55 am 03:55 Clear 52 11 29 -1.8 41 41 WSW 13 20 30.3 1026 10 16.0934 0 0
4:15 am 04:15 Clear 51 10.7 29 -1.7 42 42 WSW 10 17 30.3 1026 10 16.0934 0 0
4:35 am 04:35 Clear 51 10.6 29 -1.7 43 43 WSW 9 15 30.31 1026 10 16.0934 0 0
4:55 am 04:55 Clear 51 10.6 29 -1.9 42 42 WSW 9 15 30.31 1026 10 16.0934 0 0
5:15 am 05:15 Clear 51 10.3 28 -2.1 42 42 WSW 10 17 30.32 1027 10 16.0934 0 0
5:35 am 05:35 Clear 50 10.2 28 -2.2 42 42 WSW 10 17 30.32 1027 10 16.0934 0 0
5:55 am 05:55 Clear 51 10.3 28 -2.3 42 42 WSW 13 20 30.32 1027 10 16.0934 0 0
6:15 am 06:15 Clear 51 10.5 28 -2.5 40 40 WSW 13 20 30.32 1027 10 16.0934 0 0
6:35 am 06:35 Clear 51 10.3 28 -2.5 41 41 WSW 12 19 30.32 1027 10 16.0934 0 0
6:55 am 06:55 Clear 50 10 28 -2.3 42 42 W 10 17 30.33 1027 10 16.0934 0 0
7:15 am 07:15 Clear 49 9.3 28 -2.1 45 45 WSW 9 15 30.33 1027 10 16.0934 0 0
7:35 am 07:35 Sunny 50 9.9 28 -2.2 43 43 WSW 12 19 30.33 1027 10 16.0934 0 0
7:55 am 07:55 Sunny 50 9.8 29 -1.8 45 45 WSW 10 17 30.34 1027 10 16.0934 0 0
8:15 am 08:15 Sunny 51 10.6 29 -1.8 42 42 WSW 12 19 30.34 1027 10 16.0934 0 0
8:35 am 08:35 Sunny 52 11.2 29 -1.7 41 41 WSW 10 17 30.35 1028 10 16.0934 0 0
8:55 am 08:55 Sunny 53 11.7 29 -1.6 40 40 WSW 14 22 30.35 1028 10 16.0934 0 0
9:15 am 09:15 Sunny 54 12.3 29 -1.5 39 39 WSW 15 24 30.35 1028 10 16.0934 0 0
9:35 am 09:35 Sunny 55 12.7 30 -1.2 38 38 WSW 20 31 30.36 1028 10 16.0934 0 0
9:55 am 09:55 Mostly Cloudy 55 13 31 -0.7 39 39 WSW 18 30 30.36 1028 10 16.0934 0 0
10:15 am 10:15 Cloudy 55 13 31 -0.3 40 40 W 16 26 30.36 1028 10 16.0934 0 0
10:35 am 10:35 Cloudy 56 13.1 32 0.1 41 41 W 15 24 30.36 1028 10 16.0934 0 0
10:55 am 10:55 Cloudy 56 13.2 33 0.8 43 43 WSW 15 24 30.36 1028 10 16.0934 0 0
11:15 am 11:15 Cloudy 56 13.6 34 1.2 43 43 WSW 15 24 30.36 1028 10 16.0934 0 0
11:35 am 11:35 Cloudy 57 14 35 1.7 44 44 WSW 15 24 30.36 1028 10 16.0934 0 0
11:55 am 11:55 Cloudy 58 14.5 36 2.2 44 44 WSW 13 20 30.35 1028 10 16.0934 0 0
12:15 pm 12:15 Cloudy 58 14.7 37 2.8 45 45 WSW 15 24 30.34 1027 10 16.0934 0 0
12:35 pm 12:35 Cloudy 59 15 38 3.5 46 46 WSW 10 17 30.35 1028 10 16.0934 0 0
12:55 pm 12:55 Cloudy 59 15.2 39 4.1 48 48 WSW 8 13 30.34 1027 10 16.0934 0 0
1:15 pm 13:15 Cloudy 60 15.6 40 4.7 49 49 WSW 12 19 30.33 1027 10 16.0934 0 0
1:35 pm 13:35 Cloudy 61 15.9 41 5.1 49 49 WSW 9 15 30.32 1027 10 16.0934 0 0
1:55 pm 13:55 Cloudy 62 16.4 43 6 50 50 W 10 17 30.32 1027 10 16.0934 0 0
2:15 pm 14:15 Mostly Cloudy 61 16 44 6.7 54 54 W 12 19 30.31 1027 10 16.0934 0 0
2:35 pm 14:35 Sunny 61 15.9 45 7 56 56 W 10 17 30.31 1027 10 16.0934 0 0
2:55 pm 14:55 Cloudy 62 16.6 45 7.2 54 54 W 12 19 30.31 1027 10 16.0934 0 0
3:15 pm 15:15 Cloudy 63 17.4 46 7.6 53 53 WSW 12 19 30.3 1026 10 16.0934 0 0
3:35 pm 15:35 Cloudy 63 17.3 45 7.4 52 52 W 9 15 30.31 1026 10 16.0934 0 0
3:55 pm 15:55 Cloudy 62 16.6 46 7.5 55 55 WSW 8 13 30.31 1027 10 16.0934 0 0
4:15 pm 16:15 Cloudy 62 16.4 46 7.7 57 57 WSW 10 17 30.32 1027 10 16.0934 0 0
4:35 pm 16:35 Cloudy 61 16.2 46 7.5 57 57 WSW 9 15 30.32 1027 10 16.0934 0 0
4:55 pm 16:55 Cloudy 60 15.8 46 7.7 59 59 WSW 8 13 30.33 1027 10 16.0934 0 0
5:15 pm 17:15 Cloudy 60 15.8 46 7.7 59 59 WSW 8 13 30.33 1027 10 16.0934 0 0
5:35 pm 17:35 Cloudy 59 15 46 8 63 63 WSW 7 11 30.35 1028 10 16.0934 0 0
5:55 pm 17:55 Cloudy 58 14.7 46 8 64 64 WSW 3 6 30.35 1028 10 16.0934 0 0
6:15 pm 18:15 Cloudy 58 14.6 46 8 65 65 Calm 30.36 1028 10 16.0934 0 0
6:35 pm 18:35 Cloudy 59 15.1 46 7.8 62 62 Calm 30.36 1028 10 16.0934 0 0
6:55 pm 18:55 Cloudy 58 14.3 47 8.2 67 67 WSW 3 6 30.36 1028 10 16.0934 0 0
7:15 pm 19:15 Cloudy 58 14.4 47 8.4 67 67 WSW 5 7 30.37 1028 10 16.0934 0 0
7:35 pm 19:35 Cloudy 57 14.1 47 8.6 70 70 Calm 30.36 1028 10 16.0934 0 0
7:55 pm 19:55 Cloudy 55 12.9 48 8.7 76 76 Calm 30.37 1029 10 16.0934 0 0
8:15 pm 20:15 Cloudy 57 14 47 8.4 69 69 Calm 30.38 1029 10 16.0934 0 0
8:35 pm 20:35 Cloudy 56 13.6 48 8.7 72 72 Calm 30.38 1029 10 16.0934 0 0
8:55 pm 20:55 Cloudy 57 13.7 48 8.7 72 72 Calm 30.38 1029 10 16.0934 0 0
9:15 pm 21:15 Cloudy 54 12.3 48 9.1 81 81 Calm 30.38 1029 10 16.0934 0 0
9:35 pm 21:35 Cloudy 55 12.5 48 9 79 79 Calm 30.38 1029 10 16.0934 0 0
9:55 pm 21:55 Cloudy 54 12.4 48 8.8 79 79 Calm 30.38 1029 10 16.0934 0 0
10:15 pm 22:15 Cloudy 55 12.7 48 9.1 79 79 Calm 30.38 1029 10 16.0934 0 0
10:35 pm 22:35 Cloudy 53 11.6 49 9.3 86 86 Calm 30.4 1029 10 16.0934 0 0
10:55 pm 22:55 Cloudy 55 13 49 9.2 78 78 WSW 3 6 30.39 1029 10 16.0934 0 0
11:15 pm 23:15 Cloudy 56 13.3 49 9.7 79 79 W 6 9 30.39 1029 10 16.0934 0 0
11:35 pm 23:35 Cloudy 56 13.2 50 10 81 81 Calm 30.39 1029 10 16.0934 0 0
11:55 pm 23:55 Cloudy 56 13.3 50 10.2 82 82 W 3 6 30.4 1029 10 16.0934 0 0

Powered by AerisWeather